DateTimeUTC,F1_A11,F1_S11,BsB_S11,BsG_S11,BsR_S11,BbsB_S11,BbsG_S11,BbsR_S11,BaB_A11,BaG_A11,BaR_A11,Tu_S11,T_S11,Uu_S11,U_S11,P_S11,T1_A11
2021-07-31T10:00:00Z,00000200,20000000,,,,,,,0000.40,0000.13,0000.37,19.0,25.6,08.1,05.4,0679.7,31.0
2021-07-31T10:01:00Z,00000200,20000000,,,,,,,-000.20,-000.17,-000.07,19.0,25.6,08.1,05.4,0679.7,31.0
2021-07-31T10:02:00Z,00000200,20000000,,,,,,,-000.06,0000.09,-000.09,19.0,25.6,08.1,05.4,0679.7,31.1
2021-07-31T10:03:00Z,00000200,60000000,,,,,,,0001.42,0001.27,0001.05,19.0,25.7,08.1,05.4,0679.7,31.0
2021-07-31T10:04:00Z,00000200,40000000,0006.72,0005.31,0002.66,0001.16,0000.90,0000.38,0001.54,0001.47,0001.22,19.1,25.5,08.5,05.8,0680.6,31.1
2021-07-31T10:05:00Z,00000200,00000000,0007.27,0005.57,0002.79,0000.76,0000.70,0000.63,0001.64,0001.64,0001.07,19.2,25.5,08.5,05.8,0680.7,31.1
2021-07-31T10:06:00Z,00000200,00000000,0007.22,0005.13,0002.54,0001.04,0000.32,0000.46,0001.55,0001.33,0000.68,19.2,25.4,08.6,05.9,0680.7,31.1
2021-07-31T10:07:00Z,00000200,00000000,0007.23,0005.25,0003.03,0000.61,0000.61,0000.66,0002.18,0001.83,0001.78,19.2,25.5,08.7,05.9,0680.7,31.1
2021-07-31T10:08:00Z,00000200,00000000,0006.68,0004.95,0003.27,0001.01,0000.64,0000.48,0001.46,0001.10,0001.43,19.2,25.5,08.8,06.0,0680.7,31.0
2021-07-31T10:09:00Z,00000200,00000000,0006.83,0005.54,0003.05,0000.40,0000.29,0000.43,0001.77,0001.78,0000.93,19.2,25.5,08.8,06.0,0680.7,31.1
2021-07-31T10:10:00Z,00000200,00000000,0007.18,0005.32,0003.17,0000.45,0000.54,0000.56,0001.69,0001.68,0001.13,19.2,25.5,09.0,06.2,0680.7,31.1
2021-07-31T10:11:00Z,00000200,00000000,0006.84,0005.38,0003.05,0000.35,0000.81,0000.54,0001.87,0001.72,0001.20,19.3,25.5,08.9,06.1,0680.7,31.1
2021-07-31T10:12:00Z,00000200,00000000,0007.47,0005.29,0002.79,0000.30,0000.50,0000.51,0002.02,0001.57,0001.26,19.3,25.5,09.1,06.2,0680.7,31.1
2021-07-31T10:13:00Z,00000200,00000000,0007.61,0005.12,0003.18,0001.16,0000.72,0000.60,0001.52,0001.52,0001.18,19.3,25.5,09.2,06.3,0680.7,31.1
2021-07-31T10:14:00Z,00000200,00000000,0007.61,0004.71,0002.82,0001.20,0000.81,0000.46,0001.66,0001.85,0001.42,19.3,25.5,09.2,06.3,0680.7,31.1
2021-07-31T10:15:00Z,00000200,00000000,0007.73,0005.05,0003.10,0000.52,0000.91,0000.26,0002.11,0001.22,0000.92,19.3,25.5,09.4,06.5,0680.7,31.1
2021-07-31T10:16:00Z,00000200,00000000,0007.80,0005.16,0003.25,0000.92,0000.86,0000.48,0001.61,0001.62,0001.47,19.3,25.5,09.4,06.5,0680.7,31.1
2021-07-31T10:17:00Z,00000200,00000000,0007.29,0005.44,0003.02,0001.25,0000.64,0000.53,0001.94,0001.85,0001.36,19.3,25.5,09.4,06.5,0680.7,31.1
2021-07-31T10:18:00Z,00000200,00000000,0007.14,0005.53,0002.87,0000.95,0000.72,0000.90,0001.65,0001.49,0001.10,19.4,25.5,09.5,06.6,0680.7,31.1
2021-07-31T10:19:00Z,00000200,00000000,0008.31,0005.82,0002.72,0000.77,0000.84,0000.74,0001.75,0001.80,0001.33,19.4,25.5,09.5,06.5,0680.7,31.1
2021-07-31T10:20:00Z,00000200,00000000,0007.40,0005.11,0003.02,0000.68,0000.64,0000.56,0001.78,0001.26,0001.30,19.4,25.5,09.6,06.6,0680.7,31.1
2021-07-31T10:21:00Z,00000200,00000000,0007.44,0005.26,0002.92,0000.96,0000.80,0000.15,0001.73,0001.99,0000.92,19.4,25.5,09.6,06.6,0680.7,31.1
2021-07-31T10:22:00Z,00000200,00000000,0007.66,0005.50,0003.13,0000.51,0000.65,0000.59,0001.82,0001.53,0001.14,19.4,25.5,09.6,06.6,0680.7,31.1
2021-07-31T10:23:00Z,00000200,00000000,0007.76,0005.41,0003.25,0001.59,0000.93,0000.83,0001.79,0001.83,0001.21,19.4,25.5,09.6,06.6,0680.7,31.1
2021-07-31T10:24:00Z,00000200,00000000,0006.44,0005.63,0002.61,0001.22,0000.66,0000.34,0001.90,0001.34,0001.33,19.4,25.5,09.5,06.6,0680.7,31.1
2021-07-31T10:25:00Z,00000200,00000000,0007.81,0005.02,0003.13,0001.21,0000.69,0000.67,0001.87,0001.70,0001.35,19.4,25.5,09.6,06.6,0680.7,31.1
2021-07-31T10:26:00Z,00000200,00000000,0008.04,0005.51,0003.27,0001.18,0000.86,0000.56,0001.83,0001.64,0001.31,19.4,25.6,09.7,06.7,0680.7,31.1
2021-07-31T10:27:00Z,00000200,00000000,0007.98,0005.98,0003.01,0000.58,0000.53,0000.72,0001.89,0001.83,0001.19,19.5,25.6,09.6,06.6,0680.7,31.1
2021-07-31T10:28:00Z,00000200,00000000,0007.60,0005.49,0002.99,0000.51,0000.41,0000.53,0001.77,0001.71,0001.14,19.5,25.5,09.6,06.6,0680.7,31.1
2021-07-31T10:29:00Z,00000200,00000000,0007.44,0005.64,0002.99,0000.75,0000.69,0000.50,0002.05,0001.76,0001.64,19.5,25.6,09.6,06.7,0680.7,31.1
2021-07-31T10:30:00Z,00000200,00000000,0007.69,0005.69,0003.19,0000.75,0000.75,0000.56,0001.92,0001.59,0000.97,19.5,25.6,09.6,06.6,0680.7,31.1
2021-07-31T10:31:00Z,00000200,00000000,0007.15,0005.63,0003.32,0000.64,0000.71,0000.84,0001.89,0001.97,0001.32,19.5,25.6,09.6,06.6,0680.7,31.1
2021-07-31T10:32:00Z,00000200,00000000,0008.27,0005.44,0003.33,0001.10,0000.85,0000.47,0001.90,0001.81,0001.53,19.5,25.6,09.7,06.7,0680.7,31.1
2021-07-31T10:33:00Z,00000200,00000000,0007.75,0005.53,0002.98,0000.43,0000.47,0000.55,0001.62,0001.42,0001.23,19.5,25.6,09.7,06.7,0680.7,31.1
2021-07-31T10:34:00Z,00000200,00000000,0007.10,0005.38,0002.98,0000.19,0000.83,0000.28,0002.47,0001.99,0001.56,19.5,25.6,09.7,06.7,0680.7,31.1
2021-07-31T10:35:00Z,00000200,00000000,0007.58,0005.74,0003.18,0001.20,0000.87,0000.36,0001.54,0001.21,0000.96,19.5,25.6,09.7,06.7,0680.7,31.1
2021-07-31T10:36:00Z,00000200,00000000,0008.08,0006.01,0003.24,0000.81,0000.84,0000.61,0001.78,0002.09,0001.21,19.5,25.6,09.7,06.7,0680.7,31.1
2021-07-31T10:37:00Z,00000200,00000000,0008.13,0005.92,0003.36,0000.84,0000.67,0000.72,0001.92,0001.61,0001.66,19.6,25.6,09.7,06.7,0680.7,31.1
2021-07-31T10:38:00Z,00000200,00000000,0008.57,0005.60,0003.28,0001.06,0000.75,0000.44,0002.33,0001.93,0001.45,19.6,25.6,09.6,06.6,0680.7,31.1
2021-07-31T10:39:00Z,00000200,00000000,0007.96,0005.53,0003.30,0001.06,0000.62,0000.62,0002.00,0001.80,0000.89,19.6,25.7,09.6,06.6,0680.7,31.1
2021-07-31T10:40:00Z,00000200,00000000,0008.30,0005.40,0003.28,0000.65,0000.75,0000.65,0001.66,0001.61,0001.65,19.6,25.7,09.6,06.7,0680.7,31.1
2021-07-31T10:41:00Z,00000200,00000000,0007.13,0005.49,0003.00,0000.33,0000.27,0000.55,0001.93,0001.65,0001.20,19.6,25.6,09.8,06.8,0680.7,31.1
2021-07-31T10:42:00Z,00000200,00000000,0008.90,0005.53,0003.36,0001.25,0000.65,0000.64,0001.86,0001.81,0000.94,19.6,25.7,09.6,06.6,0680.7,31.1
2021-07-31T10:43:00Z,00000200,00000000,0006.65,0005.47,0002.95,0000.98,0000.64,0000.33,0001.69,0001.67,0001.32,19.6,25.7,09.7,06.7,0680.7,31.1
2021-07-31T10:44:00Z,00000200,00000000,0007.23,0005.47,0002.91,0000.45,0000.66,0000.19,0001.99,0001.67,0001.48,19.6,25.7,09.8,06.8,0680.7,31.1
2021-07-31T10:45:00Z,00000200,00000000,0007.69,0005.45,0002.56,0000.50,0000.41,0000.22,0002.15,0001.88,0001.31,19.6,25.7,09.7,06.7,0680.7,31.1
2021-07-31T10:46:00Z,00000200,00000000,0007.43,0005.38,0002.59,0000.82,0000.99,0000.21,0001.56,0001.37,0001.25,19.6,25.7,09.7,06.7,0680.7,31.1
2021-07-31T10:47:00Z,00000200,00000000,0007.12,0005.14,0002.93,0000.75,0000.64,0000.47,0002.00,0001.86,0001.29,19.7,25.7,09.7,06.7,0680.7,31.1
2021-07-31T10:48:00Z,00000200,00000000,0007.38,0005.24,0002.64,0000.77,0000.63,0000.34,0001.68,0001.87,0001.05,19.7,25.7,09.8,06.8,0680.7,31.1
2021-07-31T10:49:00Z,00000200,00000000,0007.37,0005.47,0003.06,0001.37,0000.82,0000.67,0001.94,0001.34,0001.26,19.7,25.7,09.8,06.8,0680.7,31.1
2021-07-31T10:50:00Z,00000200,00000000,0006.72,0005.08,0002.69,0001.17,0000.71,0000.70,0001.86,0002.11,0001.27,19.7,25.8,09.8,06.8,0680.7,31.1
2021-07-31T10:51:00Z,00000200,00000000,0007.56,0004.94,0002.89,0000.24,0000.81,0000.19,0001.75,0001.41,0001.26,19.7,25.8,09.7,06.7,0680.7,31.1
2021-07-31T10:52:00Z,00000200,00000000,0008.82,0006.58,0003.34,0001.26,0001.15,0000.52,0002.55,0002.10,0001.99,19.8,25.8,09.9,06.9,0680.9,31.1
2021-07-31T10:53:00Z,00000200,00000000,0008.37,0007.33,0003.87,0001.56,0000.72,0000.53,0002.04,0002.15,0001.13,19.8,25.8,10.0,07.0,0680.9,31.1
2021-07-31T10:54:00Z,00000200,00000000,0009.33,0006.38,0004.18,0000.83,0001.01,0000.61,0002.38,0002.19,0001.99,19.8,25.8,10.0,06.9,0680.9,31.1
2021-07-31T10:55:00Z,00000200,00000000,0009.40,0006.50,0003.77,0000.77,0001.09,0000.43,0002.08,0001.97,0001.44,19.8,25.8,10.1,07.0,0680.9,31.1
2021-07-31T10:56:00Z,00000200,00000000,0008.74,0006.47,0003.90,0001.36,0000.91,0000.92,-001.92,-002.01,-002.58,19.8,25.8,10.1,07.0,0680.9,31.1
2021-07-31T10:57:00Z,00000200,40000000,,,,,,,0000.11,-000.11,0000.41,19.9,25.8,09.6,06.7,0680.9,31.1
2021-07-31T10:58:00Z,00000200,60000000,,,,,,,0000.24,0000.20,-000.48,19.6,25.9,09.9,06.7,0679.9,31.1
2021-07-31T10:59:00Z,00000200,20000000,,,,,,,0000.36,-000.11,0000.40,19.6,26.0,09.9,06.7,0680.0,31.1
